Regional Weather Roundup
Issued by NWS Northern Indiana

Home | Current Version | Previous Version | Graphics & Text | Print | Product List | Glossary On
Versions: 1 2 3 4 5 6 7 8 9 10 11 12 13 14 15 16 17 18 19 20 21 22 23 24 25 26 27 28 29 30 31 32 33 34 35 36 37 38 39 40 41 42 43 44 45 46 47 48 49 50
000
ASUS43 KIWX 011500
RWRIWX

KIWX WEATHER ROUNDUP
NATIONAL WEATHER SERVICE NORTHERN INDIANA
1100 AM EDT FRI AUG 01 2014

NOTE: "FAIR" INDICATES FEW OR NO CLOUDS BELOW 12,000 FEET WITH NO
SIGNIFICANT WEATHER AND/OR OBSTRUCTIONS TO VISIBILITY.

* THESE STATIONS ARE NOT UNDER NWS QUALITY CONTROL. THEY ALSO MAY NOT
  REPORT WEATHER SUCH AS PRECIPITATION OR FOG.

INZ001>027-011600-
NORTHERN INDIANA

CITY           SKY/WX    TMP DP  RH WIND       PRES   REMARKS
GARY*          PTSUNNY   72  64  78 CALM      30.10S
VALPARAISO     MOSUNNY   73  63  70 SW6       30.12R
SOUTH BEND     SUNNY     77  62  59 W5        30.12R
GOSHEN         SUNNY     75  64  68 SW5       30.12S
MONTICELLO*    PTSUNNY   73  63  68 CALM      30.11F
WARSAW*        MOSUNNY   73  63  68 CALM      30.12S
ANGOLA*        SUNNY     79  63  57 W5        30.12S
FORT WAYNE     MOSUNNY   74  62  66 W3        30.13F
PERU/GRISSOM   PTSUNNY   73  65  74 CALM      30.13S

$$
INZ028>050-011600-
CENTRAL INDIANA

CITY           SKY/WX    TMP DP  RH WIND       PRES   REMARKS
LAFAYETTE      MOSUNNY   74  61  63 CALM      30.11F
KOKOMO*        MOSUNNY   75  63  64 NW3       30.13S
MUNCIE*        SUNNY     77  60  55 CALM      30.14S
INDIANAPOLIS   MOSUNNY   76  61  59 CALM      30.12S

$$
MIZ043>046-050>051-056>058-064>065-071>073-077>080-011600-
SOUTHWEST LOWER MICHIGAN

CITY           SKY/WX    TMP DP  RH WIND       PRES   REMARKS
BATTLE CREEK   SUNNY     76  62  62 VRB5      30.12R
BENTON HARBOR  SUNNY     74  61  63 W5        30.10S
COLDWATER*     SUNNY     76  63  64 SW3       30.12S
HILLSDALE*     SUNNY     77  63  63 W6        30.12S
HOLLAND        SUNNY     76  62  62 W5        30.10R
GRAND RAPIDS   MOSUNNY   77  63  61 SW6       30.10R
KALAMAZOO      SUNNY     77  62  59 SW7       30.11S
STURGIS*       SUNNY     73  64  73 SW3       30.11S
THREE RIVERS*  FAIR      78  62  56 W7        30.12R

$$
OHZ001>008-015>018-024>025-011600-
NORTHWEST OHIO

CITY           SKY/WX    TMP DP  RH WIND       PRES   REMARKS
DEFIANCE       SUNNY     76  63  64 VRB6      30.12S
FINDLAY        SUNNY     78  61  55 W7        30.12S
TOLEDO EXPRESS MOSUNNY   76  63  64 SW6       30.12R
TOLEDO METCALF MOSUNNY   75  62  64 SW7       30.12S
LIMA           SUNNY     76  63  64 NW3       30.14R

$$
&&



USA.gov is the U.S. government's official web portal to all federal, state and local government web resources and services.